Bydgoszcz Ignacy Jan Pade, Poland

5:14 AM CEST on October 23, 2018 (GMT +0200)
Szwederowo

Weather History for EPBY - October, 2018

Change the Weather History Date:

Friday, October 12, 2018

  Actual Average (WUND) Record (WUND)
Temperature  
Mean Temperature 58 °F -  
Max Temperature 73 °F - - (-1)
Min Temperature 44 °F - - (-1)
Degree Days  
Heating Degree Days 6    
Growing Degree Days 8 (Base 50)    
Moisture  
Dew Point 48 °F    
Average Humidity 70    
Maximum Humidity 100    
Minimum Humidity 44    
Precipitation  
Precipitation 0.00 in - - ()
Sea Level Pressure  
Sea Level Pressure 30.29 in    
Wind  
Wind Speed 7 mph ()    
Max Wind Speed 13 mph    
Max Gust Speed -    
Visibility 4.3 miles    
Events      
Averages and records for this station are not official NWS values.
T = Trace of Precipitation, MM = Missing Value Source: Averaged Metar Reports

Daily Weather History Graph

Daily Weather History Graph

Search for Another Location

Airport or City:

Astronomy

Oct. 12, 2018 Rise Set
Actual Time 7:08 AM CEST 5:59 PM CEST
Civil Twilight 6:33 AM CEST 6:34 PM CEST
Nautical Twilight 5:53 AM CEST 7:14 PM CEST
Astronomical Twilight 5:13 AM CEST 7:54 PM CEST
Moon 10:46 AM CEST (10/12) 8:00 PM CEST (10/12)
Length of Visible Light 12h 00m
Length of Day
10h 50m
Waxing Crescent, 12% of the Moon is Illuminated
Oct 12
Waxing Crescent
Oct 16
First Quarter
Oct 24
Full
Oct 31
Last Quarter
Nov 7
New

Hourly Weather History & Observations

Time (CEST) Temp. Windchill Dew Point Humidity Pressure Visibility Wind Dir Wind Speed Gust Speed Precip Events Conditions
12:30 AM 59.0 °F - 44.6 °F 59% 30.24 in - SE 9.2 mph - N/A   Clear
1:00 AM 57.2 °F - 44.6 °F 63% 30.27 in - SE 8.1 mph - N/A   Clear
1:30 AM 53.6 °F - 44.6 °F 72% 30.27 in - ESE 6.9 mph - N/A   Clear
2:00 AM 53.6 °F - 44.6 °F 72% 30.27 in - ESE 5.8 mph - N/A   Clear
3:00 AM 51.8 °F - 44.6 °F 76% 30.24 in - East 6.9 mph - N/A   Clear
3:30 AM 51.8 °F - 44.6 °F 76% 30.24 in - East 6.9 mph - N/A   Clear
4:00 AM 50.0 °F - 44.6 °F 82% 30.24 in - East 6.9 mph - N/A   Clear
4:30 AM 48.2 °F - 44.6 °F 87% 30.24 in 3.7 mi East 6.9 mph - N/A   Unknown
5:00 AM 46.4 °F 41.9 °F 44.6 °F 93% 30.24 in 3.7 mi East 9.2 mph - N/A   Unknown
5:30 AM 46.4 °F 42.9 °F 44.6 °F 93% 30.24 in 4.3 mi East 6.9 mph - N/A   Unknown
6:00 AM 44.6 °F 42.2 °F 42.8 °F 93% 30.27 in 5.0 mi East 4.6 mph - N/A   Unknown
6:30 AM 44.6 °F 41.4 °F 42.8 °F 93% 30.27 in 5.0 mi East 5.8 mph - N/A   Unknown
7:00 AM 44.6 °F 40.7 °F 42.8 °F 93% 30.27 in 3.7 mi East 6.9 mph - N/A   Unknown
7:30 AM 44.6 °F 41.4 °F 44.6 °F 100% 30.27 in 5.0 mi East 5.8 mph - N/A   Unknown
8:00 AM 46.4 °F 43.5 °F 44.6 °F 93% 30.27 in 3.7 mi East 5.8 mph - N/A   Unknown
8:30 AM 48.2 °F - 46.4 °F 93% 30.30 in 4.3 mi East 6.9 mph - N/A   Unknown
9:00 AM 51.8 °F - 46.4 °F 82% 30.30 in - East 4.6 mph - N/A   Clear
9:30 AM 55.4 °F - 48.2 °F 77% 30.30 in - SE 5.8 mph - N/A   Clear
10:00 AM 59.0 °F - 48.2 °F 67% 30.30 in - SE 5.8 mph - N/A   Clear
10:30 AM 60.8 °F - 48.2 °F 63% 30.30 in - SSE 6.9 mph - N/A   Clear
11:00 AM 62.6 °F - 48.2 °F 59% 30.30 in - SSE 8.1 mph - N/A   Clear
11:30 AM 64.4 °F - 50.0 °F 59% 30.30 in - South 8.1 mph - N/A   Clear
12:00 PM 66.2 °F - 50.0 °F 56% 30.30 in - SSE 10.4 mph - N/A   Clear
12:30 PM 68.0 °F - 51.8 °F 56% 30.30 in - South 6.9 mph - N/A   Clear
1:00 PM 69.8 °F - 51.8 °F 53% 30.30 in - South 10.4 mph - N/A   Clear
1:30 PM 71.6 °F - 50.0 °F 46% 30.30 in - SSE 12.7 mph - N/A   Clear
2:00 PM 73.4 °F - 50.0 °F 44% 30.30 in - SSE 11.5 mph - N/A   Clear
2:30 PM 73.4 °F - 50.0 °F 44% 30.30 in - SSE 10.4 mph - N/A   Clear
3:00 PM 73.4 °F - 50.0 °F 44% 30.30 in - SSE 11.5 mph - N/A   Clear
4:00 PM 73.4 °F - 50.0 °F 44% 30.30 in - SSE 9.2 mph - N/A   Clear
4:30 PM 73.4 °F - 50.0 °F 44% 30.30 in - South 9.2 mph - N/A   Clear
5:00 PM 71.6 °F - 50.0 °F 46% 30.27 in - SSE 6.9 mph - N/A   Clear
5:30 PM 69.8 °F - 50.0 °F 49% 30.27 in - SE 4.6 mph - N/A   Clear
6:00 PM 66.2 °F - 51.8 °F 60% 30.27 in - SE 5.8 mph - N/A   Clear
6:30 PM 66.2 °F - 50.0 °F 56% 30.30 in - SE 5.8 mph - N/A   Clear
7:00 PM 59.0 °F - 50.0 °F 72% 30.30 in - SE 4.6 mph - N/A   Clear
7:30 PM 60.8 °F - 50.0 °F 68% 30.30 in - SE 6.9 mph - N/A   Clear
8:00 PM 59.0 °F - 50.0 °F 72% 30.30 in - SE 4.6 mph - N/A   Clear
8:30 PM 57.2 °F - 50.0 °F 77% 30.30 in - SSE 4.6 mph - N/A   Clear
9:30 PM 57.2 °F - 50.0 °F 77% 30.33 in - SE 5.8 mph - N/A   Clear
10:00 PM 55.4 °F - 48.2 °F 77% 30.33 in - SSE 4.6 mph - N/A   Clear
10:30 PM 57.2 °F - 50.0 °F 77% 30.33 in - SSE 4.6 mph - N/A   Clear
11:00 PM 57.2 °F - 50.0 °F 77% 30.33 in - South 4.6 mph - N/A   Clear
11:30 PM 57.2 °F - 50.0 °F 77% 30.33 in - SSE 6.9 mph - N/A   Clear